[[{"header":{"parameterUnit":"m.s-1","parameterCategory":1,"la1":30.2991,"la2":30.254,"lo1":-89.0895,"lo2":-89.0444,"dy":0.0017,"dx":0.0017,"nx":28,"ny":28,"refTime":"2025-08-13T09:00:00:Z","depth":0,"parameterNumber":2,"parameterNumberName":"U-component_of_WINDS"},"data":[0,0,0,0,0,0,0,0,0,0,0,0,0,0,0,0,0,0,0,0,0,0,0,0,0,0,0,0,0,0,0,0,0,0,0,0,0,0,0,0,0,0,0,0,0,0,0,0,0,0,0,0,0,0,0,0,0,0,2.0576,2.0577,0,2.0674,2.0675,2.0676,2.0704,2.0704,2.0703,2.0703,2.0806,2.0809,2.0812,0,0,0,0,0,0,0,0,0,0,0,0,0,2.0417,2.042,2.0576,2.0577,2.0579,2.0674,2.0675,2.0677,2.0704,2.0704,2.0703,2.0702,2.0805,2.0808,2.0812,0,0,0,0,0,0,0,0,0,0,0,0,0,2.0498,2.0421,2.0576,2.0604,2.0607,2.0674,2.0675,2.0677,2.0704,2.0704,2.0703,2.0702,2.0803,2.0808,2.0813,2.0859,0,0,2.0828,2.083,0,0,0,0,0,0,0,0,2.0493,2.0504,2.0599,2.0602,2.0606,2.0676,2.0657,2.0738,2.0705,2.0668,2.0703,2.0702,2.0763,2.0772,2.0792,2.0864,2.0868,2.0828,2.0831,2.0833,2.0835,0,0,0,0,0,0,0,2.0488,2.05,2.0615,2.06,2.0605,2.0613,2.0623,2.0672,2.0719,2.0671,2.0673,2.0684,2.0765,2.0787,2.0794,2.087,2.0828,2.0832,2.0835,2.0837,2.0987,2.0988,0,0,0,0,0,0,2.0477,2.0495,2.0612,2.0618,2.0546,2.0616,2.0628,2.0655,2.0719,2.0727,2.0685,2.0685,2.0779,2.0789,2.0798,2.0858,2.0833,2.0838,2.0841,2.0986,2.0987,2.0988,0,0,0,0,0,0,2.0473,2.0487,2.0608,2.0557,2.0573,2.062,2.0649,2.0657,2.0678,2.0729,2.0738,2.0698,2.0779,2.0791,2.0844,2.0862,2.084,2.0844,2.0985,2.0986,2.0988,2.0976,0,0,0,0,0,0,2.0469,2.0485,2.0503,2.0557,2.0576,2.0651,2.065,2.0659,2.0686,2.0688,2.0744,2.0752,2.0779,2.0837,2.0849,2.0868,2.0848,2.0983,2.0985,2.0987,2.0975,2.0977,2.0979,0,0,0,0,0,2.0463,2.0496,2.0503,2.0517,2.0598,2.0652,2.0663,2.0692,2.0688,2.0706,2.0739,2.0751,2.0857,2.0842,2.0856,2.0877,2.0982,2.0985,2.0987,2.0975,2.0977,2.0979,0,0,0,0,0,0,2.0443,2.0503,2.0512,2.0564,2.0602,2.0657,2.068,2.0693,2.0735,2.0734,2.077,2.0782,2.0833,2.086,2.0841,2.0926,2.092,2.0926,2.0906,2.0909,2.0911,2.0903,2.0852,0,0,0,0,0,2.0444,2.0482,2.0533,2.0574,2.0593,2.0633,2.0658,2.0677,2.0719,2.0736,2.0772,2.0813,2.0856,2.0884,2.0926,2.0979,2.0993,2.1001,2.1003,2.1004,2.1008,2.104,2.1044,2.0996,2.0996,2.0996,0,0,2.0448,2.0485,2.0507,2.0571,2.0603,2.0643,2.0647,2.0688,2.0719,2.0742,2.0794,2.0823,2.0871,2.0924,2.095,2.0949,2.1025,2.1007,2.1007,2.1011,2.1043,2.1047,2.1051,2.0998,2.0998,2.0997,0,0,2.0475,2.0506,2.0544,2.0577,2.0625,2.0652,2.0661,2.0714,2.0733,2.0786,2.0805,2.0842,2.0915,2.0949,2.0976,2.1017,2.103,2.103,2.104,2.107,2.1074,2.1077,2.1093,2.1098,2.1034,2.1034,2.1034,0,2.0473,2.0533,2.0562,2.0603,2.0631,2.0654,2.0694,2.0724,2.0784,2.0803,2.0801,2.0894,2.0928,2.099,2.1,2.1021,2.1034,2.1024,2.1071,2.1075,2.1078,2.1094,2.11,2.1034,2.1034,2.1034,2.1034,0,2.0529,2.057,2.0595,2.0653,2.0683,2.0723,2.076,2.0788,2.0805,2.0833,2.0887,2.0928,2.098,2.0996,2.1013,2.1062,2.106,2.1063,2.1059,2.1082,2.1098,2.1104,2.1033,2.1033,2.1033,2.1033,0,0,2.0546,2.062,2.0628,2.0655,2.0711,2.0744,2.0786,2.0836,2.086,2.0901,2.0937,2.0999,2.1003,2.1034,2.1055,2.1081,2.1113,2.1082,2.1084,2.1087,2.1171,2.1168,2.1174,2.1122,2.1123,2.1124,2.1167,0,2.0581,2.0655,2.0684,2.0745,2.0784,2.0807,2.0844,2.0883,2.091,2.0948,2.0979,2.1022,2.1024,2.1042,2.107,2.1103,2.113,2.11,2.1158,2.1159,2.1145,2.1182,2.1179,2.1218,2.1173,2.1174,2.1175,0,2.0631,2.0672,2.0738,2.079,2.0807,2.084,2.0888,2.0924,2.097,2.0988,2.1022,2.1042,2.1088,2.108,2.1145,2.1124,2.1149,2.1169,2.1171,2.1178,2.1169,2.1191,2.1231,2.1237,2.1184,2.1183,2.1183,0,2.0638,2.071,2.0759,2.0781,2.0843,2.0865,2.0892,2.0936,2.0965,2.1008,2.1027,2.1075,2.1102,2.1139,2.1172,2.1163,2.1234,2.1229,2.1252,2.1251,2.1266,2.1265,2.1311,2.1281,2.1281,2.128,2.128,0,2.0675,2.0714,2.0763,2.0793,2.0838,2.0871,2.0915,2.0944,2.0983,2.102,2.1043,2.1078,2.1118,2.1158,2.1184,2.1235,2.1246,2.1263,2.127,2.1262,2.1259,2.1279,2.1278,2.1282,2.1282,2.1281,2.1281,0,2.069,2.0724,2.0779,2.0833,2.0848,2.0879,2.0926,2.0957,2.0985,2.1032,2.1045,2.1089,2.1138,2.1174,2.1237,2.1254,2.1309,2.1315,2.1293,2.1297,2.1318,2.1316,2.1379,2.1389,2.1351,2.1351,2.1351,0,2.0711,2.0742,2.08,2.0826,2.0853,2.0894,2.0924,2.0958,2.0988,2.1042,2.1067,2.1117,2.1158,2.1235,2.1274,2.1322,2.1331,2.135,2.1338,2.1329,2.1332,2.133,2.1334,2.1351,2.1352,2.1352,2.1352,0,2.0746,2.0761,2.0802,2.085,2.0884,2.0924,2.0963,2.0984,2.1025,2.1058,2.1107,2.114,2.1204,2.1254,2.1306,2.1336,2.1351,2.1355,2.1363,2.1356,2.1342,2.1351,2.1298,2.1354,2.1353,2.1353,2.1353,2.1353,2.0766,2.0794,2.084,2.0885,2.0919,2.0956,2.0987,2.102,2.1062,2.1116,2.1134,2.1186,2.1232,2.1304,2.1334,2.1375,2.1375,2.1387,2.139,2.1392,2.1392,2.1335,2.1385,2.1385,2.1385,2.1385,2.1385,0,2.0802,2.0832,2.0874,2.0929,2.0965,2.0976,2.1021,2.1051,2.1095,2.1137,2.1177,2.1235,2.1284,2.1327,2.1377,2.1403,2.1411,2.1415,2.1414,2.1421,2.1389,2.1377,2.1407,2.1407,2.1407,2.1407,2.1407,2.1407,2.0825,2.0875,2.0896,2.0964,2.0994,2.1045,2.107,2.1104,2.1137,2.1201,2.1241,2.1268,2.1311,2.1365,2.1411,2.1422,2.144,2.1443,2.1456,2.1425,2.1423,2.142,2.1409,2.1446,2.1446,2.1485,2.1485,2.1485]},{"header":{"parameterUnit":"m.s-1","parameterCategory":1,"la1":30.2991,"la2":30.254,"lo1":-89.0895,"lo2":-89.0444,"dy":0.0017,"dx":0.0017,"nx":28,"ny":28,"refTime":"2025-08-13T09:00:00:Z","depth":0,"parameterNumber":3,"parameterNumberName":"V-component_of_WINDS"},"data":[0,0,0,0,0,0,0,0,0,0,0,0,0,0,0,0,0,0,0,0,0,0,0,0,0,0,0,0,0,0,0,0,0,0,0,0,0,0,0,0,0,0,0,0,0,0,0,0,0,0,0,0,0,0,0,0,0,0,2.6318,2.6318,0,2.6349,2.6349,2.635,2.6336,2.6335,2.6334,2.6333,2.6364,2.6366,2.6367,0,0,0,0,0,0,0,0,0,0,0,0,0,2.6242,2.6244,2.6318,2.6318,2.6318,2.6349,2.6349,2.635,2.6336,2.6335,2.6334,2.6333,2.6364,2.6365,2.6367,0,0,0,0,0,0,0,0,0,0,0,0,0,2.6275,2.6244,2.6318,2.6315,2.6315,2.6349,2.6349,2.635,2.6336,2.6335,2.6334,2.6332,2.6363,2.6365,2.6368,2.6405,0,0,2.6375,2.6376,0,0,0,0,0,0,0,0,2.6273,2.6277,2.6315,2.6315,2.6316,2.6337,2.6334,2.6368,2.6336,2.6328,2.6333,2.6332,2.6356,2.6359,2.6367,2.6407,2.6408,2.6375,2.6376,2.6377,2.6378,0,0,0,0,0,0,0,2.6271,2.6276,2.633,2.6316,2.6316,2.6311,2.6315,2.6341,2.6348,2.6329,2.6328,2.6332,2.6356,2.6365,2.6368,2.6409,2.6375,2.6377,2.6378,2.6379,2.6476,2.6478,0,0,0,0,0,0,2.6269,2.6274,2.6329,2.6331,2.6291,2.6314,2.6317,2.6331,2.6348,2.6349,2.6333,2.6331,2.6362,2.6365,2.6369,2.6411,2.6377,2.6379,2.6381,2.6475,2.6477,2.6478,0,0,0,0,0,0,2.6267,2.6274,2.6328,2.6302,2.6309,2.6316,2.6332,2.6333,2.6342,2.6351,2.6352,2.6341,2.6361,2.6366,2.6396,2.6412,2.638,2.6383,2.6474,2.6476,2.6477,2.6498,0,0,0,0,0,0,2.6265,2.6273,2.6289,2.6303,2.631,2.6355,2.6333,2.6334,2.6346,2.6344,2.6359,2.636,2.636,2.6392,2.6398,2.6415,2.6384,2.6472,2.6475,2.6477,2.6496,2.65,2.6504,0,0,0,0,0,2.6262,2.6294,2.6289,2.6296,2.633,2.6356,2.636,2.636,2.6348,2.6362,2.6367,2.636,2.641,2.6395,2.6402,2.642,2.6471,2.6474,2.6477,2.6494,2.6499,2.6504,0,0,0,0,0,0,2.6282,2.6296,2.6291,2.6328,2.6341,2.6354,2.6372,2.6367,2.6383,2.638,2.6379,2.6383,2.6413,2.642,2.6403,2.6455,2.6438,2.6442,2.6449,2.6455,2.6459,2.6456,2.6386,0,0,0,0,0,2.629,2.6311,2.6322,2.6354,2.636,2.6365,2.6377,2.6375,2.6388,2.6394,2.6401,2.6414,2.6432,2.6444,2.6462,2.6497,2.6499,2.6512,2.6517,2.652,2.6523,2.6539,2.6544,2.6487,2.6487,2.6487,0,0,2.6308,2.6318,2.6332,2.6358,2.6367,2.6387,2.637,2.6393,2.6407,2.6397,2.6425,2.6431,2.6445,2.6476,2.6491,2.6483,2.6539,2.6523,2.6526,2.6527,2.6542,2.6548,2.6552,2.6489,2.6488,2.6488,0,0,2.635,2.6362,2.6387,2.6397,2.6412,2.6414,2.642,2.6433,2.6437,2.6465,2.6457,2.6474,2.6506,2.6515,2.6524,2.6567,2.6559,2.6573,2.6593,2.6609,2.6614,2.6617,2.663,2.6635,2.6576,2.6576,2.6576,0,2.6371,2.6401,2.6401,2.6424,2.6434,2.6426,2.645,2.646,2.648,2.6486,2.6477,2.6515,2.6524,2.6557,2.6567,2.6575,2.658,2.657,2.6613,2.6617,2.6621,2.6633,2.6638,2.6577,2.6577,2.6577,2.6577,0,2.6424,2.6445,2.6464,2.6482,2.6495,2.6519,2.652,2.6533,2.653,2.6533,2.656,2.6571,2.6589,2.6597,2.6595,2.6628,2.6622,2.6613,2.6596,2.6627,2.6638,2.6643,2.6579,2.6579,2.6578,2.6578,0,0,2.6479,2.6495,2.6502,2.6509,2.6523,2.6539,2.6562,2.6579,2.6588,2.6602,2.6619,2.6645,2.6636,2.6646,2.6645,2.6659,2.6689,2.6648,2.6648,2.6653,2.6723,2.6728,2.6733,2.6684,2.6685,2.6686,2.6721,0,2.652,2.6559,2.6559,2.6594,2.6612,2.6603,2.6622,2.6632,2.6636,2.665,2.6654,2.6671,2.666,2.6665,2.6679,2.6682,2.6702,2.668,2.6698,2.6699,2.6693,2.6739,2.6745,2.6777,2.6725,2.6726,2.6727,0,2.6573,2.6587,2.6624,2.6633,2.6641,2.6658,2.6672,2.6687,2.6698,2.6699,2.6709,2.6705,2.6725,2.6709,2.6736,2.6721,2.6728,2.6731,2.6732,2.6732,2.6713,2.6738,2.6788,2.6792,2.6734,2.6733,2.6733,0,2.6606,2.6635,2.6659,2.6666,2.6678,2.669,2.6695,2.6705,2.6714,2.6727,2.6732,2.6747,2.6755,2.6766,2.6765,2.6754,2.6792,2.6776,2.6791,2.6791,2.6799,2.6798,2.6848,2.6807,2.6807,2.6807,2.6807,0,2.6651,2.6673,2.6674,2.6689,2.6713,2.6712,2.6735,2.6739,2.6747,2.6762,2.6756,2.677,2.6769,2.6783,2.6783,2.6803,2.6808,2.6808,2.6807,2.6807,2.6807,2.6811,2.6807,2.6808,2.6808,2.6808,2.6807,0,2.6691,2.6693,2.6719,2.6728,2.673,2.6747,2.6754,2.6768,2.677,2.6788,2.6793,2.6796,2.6811,2.6812,2.683,2.683,2.6854,2.6852,2.685,2.6849,2.6864,2.6861,2.6916,2.6922,2.688,2.688,2.6881,0,2.6718,2.6735,2.6745,2.6754,2.676,2.6775,2.6784,2.6783,2.6793,2.6805,2.6816,2.6831,2.6842,2.6867,2.687,2.6884,2.688,2.6899,2.6882,2.6881,2.6878,2.6876,2.6876,2.6901,2.6902,2.6902,2.6902,0,2.6765,2.6764,2.6778,2.6791,2.6802,2.6813,2.6822,2.683,2.683,2.6841,2.6856,2.6865,2.6883,2.6896,2.6909,2.6913,2.6907,2.6908,2.6911,2.6911,2.6908,2.6907,2.6857,2.6906,2.6906,2.6905,2.6905,2.6905,2.6798,2.6811,2.6819,2.6834,2.6841,2.6849,2.6861,2.6864,2.6877,2.6891,2.689,2.6906,2.6914,2.693,2.6935,2.6947,2.6941,2.6947,2.6948,2.6949,2.695,2.6908,2.695,2.695,2.695,2.695,2.695,0,2.6842,2.6846,2.686,2.6873,2.6883,2.6877,2.6887,2.6896,2.691,2.6918,2.6929,2.6946,2.6959,2.6963,2.6975,2.6983,2.6981,2.6987,2.6985,2.6985,2.6956,2.695,2.6988,2.6988,2.6988,2.6988,2.6988,2.6988,2.6866,2.6887,2.6887,2.6911,2.6915,2.6931,2.6936,2.6944,2.6949,2.6968,2.6978,2.6981,2.6987,2.6999,2.701,2.701,2.7014,2.7021,2.702,2.6992,2.6988,2.6984,2.6979,2.7022,2.7022,2.7048,2.7048,2.7048]}]]